Weather History for Albuquerque, NM

Change the Weather History Date:

Saturday, May 31, 2014

  Actual Average Record
Temperature  
Mean Temperature 77 °F 70 °F  
Max Temperature 92 °F 84 °F 97 °F (1956)
Min Temperature 62 °F 57 °F 33 °F (1909)
Degree Days  
Heating Degree Days 0 1  
Month to date heating degree days 113 72  
Since 1 July heating degree days 3980 4175  
Cooling Degree Days 12 6  
Month to date cooling degree days 106 91  
Year to date cooling degree days 112 98  
Growing Degree Days 26 (Base 50)    
Moisture  
Dew Point 36 °F    
Average Humidity 28    
Maximum Humidity 43    
Minimum Humidity 12    
Precipitation  
Precipitation 0.00 in 0.02 in 0.50 in (1914)
Month to date precipitation 0.60 0.50  
Year to date precipitation 1.01 2.54  
Snow  
Snow 0.00 in - - ()
Month to date snowfall 0.0  
Since 1 July snowfall 6.6  
Snow Depth 0.00 in    
Sea Level Pressure  
Sea Level Pressure 29.79 in    
Wind  
Wind Speed 7 mph (WSW)    
Max Wind Speed 20 mph    
Max Gust Speed 26 mph    
Visibility 10 miles    
Events      
T = Trace of Precipitation, MM = Missing Value Source: NWS Daily Summary

Daily Weather History Graph

Daily Weather History Graph

Search for Another Location

Airport:

Trip Planner

Search our weather history database for the weather conditions in past years. The results will help you decide how hot, cold, wet, or windy it might be!

Date:

Astronomy

May. 31, 2014 Rise Set
Actual Time 5:53 AM MDT 8:14 PM MDT
Civil Twilight 5:24 AM MDT 8:43 PM MDT
Nautical Twilight 4:48 AM MDT 9:19 PM MDT
Astronomical Twilight 4:09 AM MDT 9:59 PM MDT
Moon 8:30 AM MDT (5/31) 10:38 PM MDT (5/31)
Length of Visible Light 15h 19m
Length of Day
14h 20m
Waxing Crescent, 9% of the Moon is Illuminated
May 31
Waxing Crescent
Jun 5
First Quarter
Jun 12
Full
Jun 19
Last Quarter
Jun 27
New

Hourly Weather History & Observations

Time (MDT) Temp. Dew Point Humidity Pressure Visibility Wind Dir Wind Speed Gust Speed Precip Events Conditions
12:52 AM 73.0 °F 39.9 °F 30% 29.83 in 10.0 mi NNE 4.6 mph - N/A   Scattered Clouds
1:52 AM 72.0 °F 37.9 °F 29% 29.82 in 10.0 mi North 8.1 mph - N/A   Scattered Clouds
2:52 AM 70.0 °F 34.0 °F 27% 29.83 in 10.0 mi North 9.2 mph - N/A   Partly Cloudy
3:52 AM 66.9 °F 37.0 °F 33% 29.84 in 10.0 mi North 8.1 mph - N/A   Partly Cloudy
4:52 AM 64.0 °F 37.9 °F 38% 29.84 in 10.0 mi North 9.2 mph - N/A   Partly Cloudy
5:52 AM 63.0 °F 39.0 °F 41% 29.86 in 10.0 mi NNW 4.6 mph - N/A   Partly Cloudy
6:52 AM 64.0 °F 41.0 °F 43% 29.87 in 10.0 mi North 6.9 mph - N/A   Mostly Cloudy
7:52 AM 66.9 °F 41.0 °F 39% 29.88 in 10.0 mi Calm Calm - N/A   Partly Cloudy
8:52 AM 71.1 °F 41.0 °F 34% 29.89 in 10.0 mi Calm Calm - N/A   Partly Cloudy
9:52 AM 77.0 °F 42.1 °F 29% 29.86 in 10.0 mi West 4.6 mph - N/A   Partly Cloudy
10:52 AM 80.1 °F 39.9 °F 24% 29.85 in 10.0 mi Variable 3.5 mph - N/A   Scattered Clouds
11:52 AM 82.9 °F 41.0 °F 23% 29.84 in 10.0 mi WSW 8.1 mph - N/A   Scattered Clouds
12:52 PM 86.0 °F 39.9 °F 20% 29.81 in 10.0 mi South 8.1 mph - N/A   Scattered Clouds
1:52 PM 88.0 °F 36.0 °F 16% 29.79 in 10.0 mi South 5.8 mph - N/A   Scattered Clouds
2:52 PM 89.1 °F 34.0 °F 14% 29.77 in 10.0 mi SSW 8.1 mph - N/A   Partly Cloudy
3:52 PM 89.1 °F 34.0 °F 14% 29.75 in 10.0 mi Variable 5.8 mph 18.4 mph N/A   Scattered Clouds
4:52 PM 91.9 °F 34.0 °F 13% 29.72 in 10.0 mi Variable 3.5 mph - N/A   Scattered Clouds
5:52 PM 90.0 °F 30.9 °F 12% 29.71 in 10.0 mi SSW 9.2 mph - N/A   Mostly Cloudy
6:52 PM 90.0 °F 30.0 °F 12% 29.70 in 10.0 mi SW 8.1 mph - N/A   Mostly Cloudy
7:52 PM 89.1 °F 30.9 °F 12% 29.68 in 10.0 mi WSW 4.6 mph - N/A   Mostly Cloudy
8:52 PM 86.0 °F 32.0 °F 14% 29.68 in 10.0 mi East 5.8 mph - N/A   Mostly Cloudy
9:52 PM 81.0 °F 34.0 °F 18% 29.68 in 10.0 mi SE 9.2 mph - N/A   Mostly Cloudy
10:52 PM 82.9 °F 34.0 °F 17% 29.68 in 10.0 mi SSW 13.8 mph - N/A   Scattered Clouds
11:52 PM 80.1 °F 30.0 °F 16% 29.69 in 10.0 mi SW 10.4 mph - N/A   Partly Cloudy